Hourly Data Report for March 21, 2003

SHERBROOKE A
QUEBEC

45°26'00.000" N
71°41'00.000" W
241.40 m
7028124
71610
YSC

Download Data

Hourly Data (March 2003)
Hourly Data Report for March 21, 2003
TIME
LST
Temp Definition
°C
Dew Point Definition
°C
Rel Hum Definition
%
Precip. Amount Definition
mm

Wind Dir Definition
10's deg

Wind Spd Definition
km/h
Visibility Definition
km
Stn Press Definition
kPa
Hmdx Definition


Wind Chill Definition


Weather Definition


00:00 1.5 -0.4 87     0 0.8 98.51     Rain
01:00 2.0 0.1 87   5 7 1.3 98.37     Moderate Rain
02:00 2.6 0.7 87   8 11 6.4 98.15     Moderate Rain
03:00 3.6 1.6 87   6 15 11.3 97.83     Rain
04:00 4.1 2.0 86     0 15.0 97.77     Rain
05:00 3.7 1.8 87   12 6 4.0 97.70     Moderate Drizzle
06:00 3.4 1.3 86   15 6 6.4 97.64     Drizzle
07:00 3.4 1.4 87   15 7 4.8 97.63     Drizzle
08:00 3.4 1.6 88   22 7 3.2 97.67     Rain, Fog
09:00 3.6 1.5 86   21 11 19.3 97.68     Cloudy
10:00 4.3 2.2 86   21 13 9.7 97.69     Drizzle, Fog
11:00 5.0 2.9 86   22 13 4.8 97.70     Drizzle
12:00 5.0 2.8 86   23 13 19.3 97.72     Drizzle
13:00 4.8 2.5 85   26 9 19.3 97.72     Drizzle
14:00 5.1 2.7 84   22 6 24.1 97.72     Cloudy
15:00 5.7 2.6 80   23 9 24.1 97.68     Cloudy
16:00 5.9 2.9 81   21 4 24.1 97.66     Cloudy
17:00 5.5 2.7 82   35 4 24.1 97.68     Cloudy
18:00 4.6 2.4 86   4 4 15.0 97.69      
19:00 3.0 1.0 87   9 4 2.7 97.67      
20:00 3.6 1.7 87     0 4.8 97.69      
21:00 3.4 1.7 89   2 4 4.0 97.68      
22:00 3.7 1.9 88   7 7 4.8 97.64      
23:00 3.7 1.8 87   4 7 3.4 97.62      

Notes on Data Quality.

Legend

  • E = Estimated
  • M = Missing
  • NA = Not Available*
  • [empty] = Indicates an unobserved value
Date modified: